Time,TemperatureF,DewpointF,PressureIn,WindDirection,WindDirectionDegrees,WindSpeedMPH,WindSpeedGustMPH,Humidity,HourlyPrecipIn,Conditions,Clouds,dailyrainin,SoftwareType,DateUTC
2013-06-02 00:01:00,71.0,66.9,29.87,SSW,202,0.0,4.0,87,0.00,,,0.00,Weather View 32 v70,2013-06-02 04:01:00,
2013-06-02 00:02:00,71.0,66.6,29.87,SSW,202,1.0,4.0,86,0.00,,,0.00,Weather View 32 v70,2013-06-02 04:02:00,
2013-06-02 00:07:00,70.0,65.9,29.87,SSW,202,0.0,4.0,87,0.00,,,0.00,Weather View 32 v70,2013-06-02 04:07:00,
2013-06-02 00:12:00,70.0,66.3,29.87,SSW,202,0.0,4.0,88,0.00,,,0.00,Weather View 32 v70,2013-06-02 04:12:00,
2013-06-02 00:17:00,70.0,66.3,29.87,SSW,202,0.0,4.0,88,0.00,,,0.00,Weather View 32 v70,2013-06-02 04:17:00,
2013-06-02 00:22:00,70.0,66.3,29.87,SSW,202,0.0,4.0,88,0.00,,,0.00,Weather View 32 v70,2013-06-02 04:22:00,
2013-06-02 00:27:00,70.0,65.9,29.87,NW,315,0.0,4.0,87,0.00,,,0.00,Weather View 32 v70,2013-06-02 04:27:00,
2013-06-02 00:32:00,70.0,66.3,29.87,NW,315,0.0,4.0,88,0.00,,,0.00,Weather View 32 v70,2013-06-02 04:32:00,
2013-06-02 00:37:00,70.0,66.3,29.87,NW,315,0.0,3.0,88,0.00,,,0.00,Weather View 32 v70,2013-06-02 04:37:00,
2013-06-02 00:42:00,70.0,66.6,29.87,NW,315,0.0,3.0,89,0.00,,,0.00,Weather View 32 v70,2013-06-02 04:42:00,
2013-06-02 00:47:00,70.0,66.6,29.87,NW,315,0.0,3.0,89,0.00,,,0.00,Weather View 32 v70,2013-06-02 04:47:00,
2013-06-02 00:52:00,70.0,67.2,29.87,NW,315,0.0,3.0,91,0.00,,,0.00,Weather View 32 v70,2013-06-02 04:52:00,
2013-06-02 00:57:00,70.0,66.9,29.87,North,360,0.0,3.0,90,0.00,,,0.00,Weather View 32 v70,2013-06-02 04:57:00,
2013-06-02 01:02:00,70.0,67.2,29.87,North,360,0.0,3.0,91,0.00,,,0.00,Weather View 32 v70,2013-06-02 05:02:00,
2013-06-02 01:07:00,70.0,67.2,29.87,North,360,0.0,3.0,91,0.00,,,0.00,Weather View 32 v70,2013-06-02 05:07:00,
2013-06-02 01:12:00,70.0,67.2,29.87,North,360,0.0,3.0,91,0.00,,,0.00,Weather View 32 v70,2013-06-02 05:12:00,
2013-06-02 01:17:00,70.0,67.2,29.86,North,360,0.0,3.0,91,0.00,,,0.00,Weather View 32 v70,2013-06-02 05:17:00,
2013-06-02 01:22:00,69.0,65.9,29.86,North,360,0.0,3.0,90,0.00,,,0.00,Weather View 32 v70,2013-06-02 05:22:00,
2013-06-02 01:27:00,69.0,65.9,29.86,NE,45,2.0,5.0,90,0.00,,,0.00,Weather View 32 v70,2013-06-02 05:27:00,
2013-06-02 01:32:00,69.0,66.3,29.86,NNW,337,6.0,6.0,91,0.00,,,0.00,Weather View 32 v70,2013-06-02 05:32:00,
2013-06-02 01:37:00,69.0,66.3,29.85,SE,135,0.0,6.0,91,0.00,,,0.00,Weather View 32 v70,2013-06-02 05:37:00,
2013-06-02 01:42:00,69.0,66.3,29.85,ENE,67,0.0,6.0,91,0.00,,,0.00,Weather View 32 v70,2013-06-02 05:42:00,
2013-06-02 01:47:00,69.0,66.3,29.85,ENE,67,0.0,6.0,91,0.00,,,0.00,Weather View 32 v70,2013-06-02 05:47:00,
2013-06-02 01:52:00,69.0,66.3,29.85,NNW,337,0.0,6.0,91,0.00,,,0.00,Weather View 32 v70,2013-06-02 05:52:00,
2013-06-02 01:57:00,69.0,66.6,29.86,NNW,337,0.0,6.0,92,0.00,,,0.00,Weather View 32 v70,2013-06-02 05:57:00,
2013-06-02 02:02:00,69.0,66.3,29.86,NNW,337,0.0,6.0,91,0.00,,,0.00,Weather View 32 v70,2013-06-02 06:02:00,
2013-06-02 02:07:00,69.0,66.3,29.85,NNW,337,0.0,6.0,91,0.00,,,0.00,Weather View 32 v70,2013-06-02 06:07:00,
2013-06-02 02:12:00,69.0,66.6,29.85,NNW,337,0.0,6.0,92,0.00,,,0.00,Weather View 32 v70,2013-06-02 06:12:00,
2013-06-02 02:17:00,69.0,66.6,29.85,NNW,337,0.0,6.0,92,0.00,,,0.00,Weather View 32 v70,2013-06-02 06:17:00,
2013-06-02 02:22:00,68.0,65.9,29.85,NNW,337,0.0,6.0,93,0.00,,,0.00,Weather View 32 v70,2013-06-02 06:22:00,
2013-06-02 02:27:00,68.0,65.9,29.85,NNW,337,0.0,6.0,93,0.00,,,0.00,Weather View 32 v70,2013-06-02 06:27:00,
2013-06-02 02:32:00,68.0,65.9,29.85,NNW,337,0.0,6.0,93,0.00,,,0.00,Weather View 32 v70,2013-06-02 06:32:00,
2013-06-02 02:37:00,68.0,66.2,29.85,NNW,337,0.0,4.0,94,0.00,,,0.00,Weather View 32 v70,2013-06-02 06:37:00,
2013-06-02 02:42:00,68.0,66.2,29.85,SW,225,0.0,4.0,94,0.00,,,0.00,Weather View 32 v70,2013-06-02 06:42:00,
2013-06-02 02:47:00,68.0,66.2,29.85,SW,225,1.0,4.0,94,0.00,,,0.00,Weather View 32 v70,2013-06-02 06:47:00,
2013-06-02 02:52:00,68.0,66.5,29.85,SW,225,0.0,4.0,95,0.00,,,0.00,Weather View 32 v70,2013-06-02 06:52:00,
2013-06-02 02:57:00,68.0,66.2,29.85,SW,225,0.0,4.0,94,0.00,,,0.00,Weather View 32 v70,2013-06-02 06:57:00,
2013-06-02 03:02:00,68.0,66.5,29.85,SW,225,0.0,4.0,95,0.00,,,0.00,Weather View 32 v70,2013-06-02 07:02:00,
2013-06-02 03:07:00,68.0,66.5,29.85,SW,225,0.0,4.0,95,0.00,,,0.00,Weather View 32 v70,2013-06-02 07:07:00,
2013-06-02 03:12:00,68.0,66.5,29.85,SW,225,0.0,4.0,95,0.00,,,0.00,Weather View 32 v70,2013-06-02 07:12:00,
2013-06-02 03:17:00,68.0,66.5,29.85,North,360,0.0,4.0,95,0.00,,,0.00,Weather View 32 v70,2013-06-02 07:17:00,
2013-06-02 03:22:00,68.0,66.8,29.85,North,360,0.0,4.0,96,0.00,,,0.00,Weather View 32 v70,2013-06-02 07:22:00,
2013-06-02 03:27:00,68.0,66.8,29.85,NNE,22,0.0,4.0,96,0.00,,,0.00,Weather View 32 v70,2013-06-02 07:27:00,
2013-06-02 03:32:00,68.0,66.8,29.85,NNE,22,0.0,4.0,96,0.00,,,0.00,Weather View 32 v70,2013-06-02 07:32:00,
2013-06-02 03:37:00,67.0,65.5,29.85,NNE,22,0.0,4.0,95,0.00,,,0.00,Weather View 32 v70,2013-06-02 07:37:00,
2013-06-02 03:42:00,67.0,65.5,29.85,NNE,22,0.0,4.0,95,0.00,,,0.00,Weather View 32 v70,2013-06-02 07:42:00,
2013-06-02 03:47:00,67.0,65.5,29.85,NNE,22,0.0,4.0,95,0.00,,,0.00,Weather View 32 v70,2013-06-02 07:47:00,
2013-06-02 03:52:00,67.0,65.8,29.85,NNE,22,0.0,4.0,96,0.00,,,0.00,Weather View 32 v70,2013-06-02 07:52:00,
2013-06-02 03:57:00,67.0,65.8,29.85,NNE,22,0.0,4.0,96,0.00,,,0.00,Weather View 32 v70,2013-06-02 07:57:00,
2013-06-02 04:02:00,67.0,65.8,29.85,NNE,22,0.0,4.0,96,0.00,,,0.00,Weather View 32 v70,2013-06-02 08:02:00,
2013-06-02 04:07:00,67.0,65.8,29.85,SW,225,0.0,4.0,96,0.00,,,0.00,Weather View 32 v70,2013-06-02 08:07:00,
2013-06-02 04:12:00,67.0,66.1,29.85,South,180,0.0,4.0,97,0.00,,,0.00,Weather View 32 v70,2013-06-02 08:12:00,
2013-06-02 04:17:00,67.0,65.8,29.85,ENE,67,0.0,4.0,96,0.00,,,0.00,Weather View 32 v70,2013-06-02 08:17:00,
2013-06-02 04:22:00,67.0,65.8,29.85,ENE,67,0.0,4.0,96,0.00,,,0.00,Weather View 32 v70,2013-06-02 08:22:00,
2013-06-02 04:27:00,67.0,65.8,29.85,ENE,67,0.0,4.0,96,0.00,,,0.00,Weather View 32 v70,2013-06-02 08:27:00,
2013-06-02 04:32:00,67.0,65.8,29.85,ENE,67,0.0,4.0,96,0.00,,,0.00,Weather View 32 v70,2013-06-02 08:32:00,
2013-06-02 04:37:00,67.0,65.8,29.85,ENE,67,0.0,4.0,96,0.00,,,0.00,Weather View 32 v70,2013-06-02 08:37:00,
2013-06-02 04:42:00,67.0,65.8,29.85,ENE,67,0.0,4.0,96,0.00,,,0.00,Weather View 32 v70,2013-06-02 08:42:00,
2013-06-02 04:47:00,67.0,65.8,29.85,ENE,67,0.0,4.0,96,0.00,,,0.00,Weather View 32 v70,2013-06-02 08:47:00,
2013-06-02 04:52:00,67.0,65.8,29.85,ENE,67,0.0,4.0,96,0.00,,,0.00,Weather View 32 v70,2013-06-02 08:52:00,
2013-06-02 04:57:00,67.0,65.8,29.85,ENE,67,0.0,4.0,96,0.00,,,0.00,Weather View 32 v70,2013-06-02 08:57:00,
2013-06-02 05:02:00,67.0,65.8,29.85,ENE,67,0.0,4.0,96,0.00,,,0.00,Weather View 32 v70,2013-06-02 09:02:00,
2013-06-02 05:07:00,67.0,65.8,29.85,ENE,67,0.0,1.0,96,0.00,,,0.00,Weather View 32 v70,2013-06-02 09:07:00,
2013-06-02 05:12:00,67.0,66.4,29.85,ENE,67,0.0,1.0,98,0.00,,,0.00,Weather View 32 v70,2013-06-02 09:12:00,
2013-06-02 05:17:00,67.0,66.1,29.85,ENE,67,0.0,1.0,97,0.00,,,0.00,Weather View 32 v70,2013-06-02 09:17:00,
2013-06-02 05:22:00,67.0,66.1,29.85,ENE,67,0.0,1.0,97,0.00,,,0.00,Weather View 32 v70,2013-06-02 09:22:00,
2013-06-02 05:27:00,67.0,66.1,29.85,ENE,67,0.0,1.0,97,0.00,,,0.00,Weather View 32 v70,2013-06-02 09:27:00,
2013-06-02 05:32:00,67.0,65.8,29.85,ENE,67,0.0,1.0,96,0.00,,,0.00,Weather View 32 v70,2013-06-02 09:32:00,
2013-06-02 05:37:00,67.0,66.1,29.85,ENE,67,0.0,0.0,97,0.00,,,0.00,Weather View 32 v70,2013-06-02 09:37:00,
2013-06-02 05:42:00,67.0,66.1,29.85,ENE,67,0.0,0.0,97,0.00,,,0.00,Weather View 32 v70,2013-06-02 09:42:00,
2013-06-02 05:47:00,67.0,66.1,29.85,ENE,67,0.0,0.0,97,0.00,,,0.00,Weather View 32 v70,2013-06-02 09:47:00,
2013-06-02 05:52:00,67.0,66.1,29.85,ENE,67,0.0,0.0,97,0.00,,,0.00,Weather View 32 v70,2013-06-02 09:52:00,
2013-06-02 05:57:00,67.0,66.1,29.85,ENE,67,0.0,0.0,97,0.00,,,0.00,Weather View 32 v70,2013-06-02 09:57:00,
2013-06-02 06:02:00,67.0,66.1,29.85,ENE,67,0.0,0.0,97,0.00,,,0.00,Weather View 32 v70,2013-06-02 10:02:00,
2013-06-02 06:07:00,67.0,66.1,29.85,ENE,67,0.0,0.0,97,0.00,,,0.00,Weather View 32 v70,2013-06-02 10:07:00,
2013-06-02 06:12:00,67.0,66.4,29.85,ENE,67,0.0,0.0,98,0.00,,,0.00,Weather View 32 v70,2013-06-02 10:12:00,
2013-06-02 06:17:00,67.0,66.4,29.85,South,180,1.0,6.0,98,0.00,,,0.00,Weather View 32 v70,2013-06-02 10:17:00,
2013-06-02 06:22:00,67.0,66.4,29.85,South,180,1.0,6.0,98,0.00,,,0.00,Weather View 32 v70,2013-06-02 10:22:00,
2013-06-02 06:27:00,67.0,66.4,29.85,North,360,0.0,6.0,98,0.00,,,0.00,Weather View 32 v70,2013-06-02 10:27:00,
2013-06-02 06:32:00,67.0,66.4,29.85,SW,225,0.0,6.0,98,0.00,,,0.00,Weather View 32 v70,2013-06-02 10:32:00,
2013-06-02 06:37:00,68.0,67.1,29.85,SW,225,0.0,6.0,97,0.00,,,0.00,Weather View 32 v70,2013-06-02 10:37:00,
2013-06-02 06:42:00,68.0,67.1,29.85,SW,225,0.0,6.0,97,0.00,,,0.00,Weather View 32 v70,2013-06-02 10:42:00,
2013-06-02 06:47:00,68.0,67.1,29.85,SW,225,1.0,6.0,97,0.00,,,0.00,Weather View 32 v70,2013-06-02 10:47:00,
2013-06-02 06:52:00,68.0,66.8,29.85,SW,225,1.0,6.0,96,0.00,,,0.00,Weather View 32 v70,2013-06-02 10:52:00,
2013-06-02 06:57:00,68.0,66.5,29.85,SW,225,3.0,6.0,95,0.00,,,0.00,Weather View 32 v70,2013-06-02 10:57:00,
2013-06-02 07:02:00,68.0,66.5,29.85,SW,225,1.0,6.0,95,0.00,,,0.00,Weather View 32 v70,2013-06-02 11:02:00,
2013-06-02 07:07:00,69.0,66.9,29.83,South,180,3.0,6.0,93,0.00,,,0.00,Weather View 32 v70,2013-06-02 11:07:00,
2013-06-02 07:13:00,69.0,66.3,29.83,South,180,0.0,6.0,91,0.00,,,0.00,Weather View 32 v70,2013-06-02 11:13:00,
2013-06-02 07:18:00,69.0,66.3,29.83,SSW,202,1.0,4.0,91,0.00,,,0.00,Weather View 32 v70,2013-06-02 11:18:00,
2013-06-02 07:23:00,69.0,65.9,29.83,SSW,202,2.0,5.0,90,0.00,,,0.00,Weather View 32 v70,2013-06-02 11:23:00,
2013-06-02 07:28:00,70.0,67.2,29.83,SSW,202,2.0,5.0,91,0.00,,,0.00,Weather View 32 v70,2013-06-02 11:28:00,
2013-06-02 07:33:00,70.0,66.9,29.83,SSW,202,3.0,5.0,90,0.00,,,0.00,Weather View 32 v70,2013-06-02 11:33:00,
2013-06-02 07:38:00,70.0,66.9,29.83,SSW,202,2.0,5.0,90,0.00,,,0.00,Weather View 32 v70,2013-06-02 11:38:00,
2013-06-02 07:43:00,70.0,66.9,29.83,SW,225,1.0,5.0,90,0.00,,,0.00,Weather View 32 v70,2013-06-02 11:43:00,
2013-06-02 07:48:00,70.0,66.9,29.83,SW,225,1.0,5.0,90,0.00,,,0.00,Weather View 32 v70,2013-06-02 11:48:00,
2013-06-02 07:53:00,70.0,66.6,29.83,SW,225,2.0,6.0,89,0.00,,,0.00,Weather View 32 v70,2013-06-02 11:53:00,
2013-06-02 07:58:00,70.0,66.6,29.83,SSW,202,1.0,6.0,89,0.00,,,0.00,Weather View 32 v70,2013-06-02 11:58:00,
2013-06-02 08:03:00,71.0,67.6,29.83,SW,225,3.0,6.0,89,0.00,,,0.00,Weather View 32 v70,2013-06-02 12:03:00,
2013-06-02 08:08:00,71.0,67.6,29.83,SSW,202,2.0,6.0,89,0.00,,,0.00,Weather View 32 v70,2013-06-02 12:08:00,
2013-06-02 08:13:00,71.0,67.3,29.83,SW,225,3.0,6.0,88,0.00,,,0.00,Weather View 32 v70,2013-06-02 12:13:00,
2013-06-02 08:18:00,71.0,67.3,29.83,SW,225,4.0,6.0,88,0.00,,,0.00,Weather View 32 v70,2013-06-02 12:18:00,
2013-06-02 08:23:00,71.0,67.3,29.83,SW,225,3.0,6.0,88,0.00,,,0.00,Weather View 32 v70,2013-06-02 12:23:00,
2013-06-02 08:28:00,71.0,66.9,29.83,SW,225,3.0,6.0,87,0.00,,,0.00,Weather View 32 v70,2013-06-02 12:28:00,
2013-06-02 08:33:00,71.0,66.9,29.83,SW,225,0.0,6.0,87,0.00,,,0.00,Weather View 32 v70,2013-06-02 12:33:00,
2013-06-02 08:38:00,72.0,67.9,29.82,SW,225,3.0,6.0,87,0.00,,,0.00,Weather View 32 v70,2013-06-02 12:38:00,
2013-06-02 08:43:00,72.0,67.6,29.82,SW,225,0.0,6.0,86,0.00,,,0.00,Weather View 32 v70,2013-06-02 12:43:00,
2013-06-02 08:48:00,72.0,67.6,29.82,SW,225,3.0,6.0,86,0.00,,,0.00,Weather View 32 v70,2013-06-02 12:48:00,
2013-06-02 08:53:00,72.0,67.9,29.82,SW,225,1.0,5.0,87,0.00,,,0.00,Weather View 32 v70,2013-06-02 12:53:00,
2013-06-02 08:58:00,73.0,68.5,29.81,SSW,202,3.0,5.0,86,0.00,,,0.00,Weather View 32 v70,2013-06-02 12:58:00,
2013-06-02 09:03:00,73.0,68.2,29.81,SSW,202,4.0,5.0,85,0.00,,,0.00,Weather View 32 v70,2013-06-02 13:03:00,
2013-06-02 09:08:00,73.0,68.5,29.81,SSW,202,2.0,5.0,86,0.00,,,0.00,Weather View 32 v70,2013-06-02 13:08:00,
2013-06-02 09:13:00,74.0,68.5,29.80,SW,225,3.0,6.0,83,0.00,,,0.00,Weather View 32 v70,2013-06-02 13:13:00,
2013-06-02 09:18:00,74.0,68.8,29.80,SSW,202,1.0,6.0,84,0.00,,,0.00,Weather View 32 v70,2013-06-02 13:18:00,
2013-06-02 09:23:00,74.0,68.1,29.79,SW,225,2.0,6.0,82,0.00,,,0.00,Weather View 32 v70,2013-06-02 13:23:00,
2013-06-02 09:28:00,74.0,68.8,29.79,SW,225,2.0,6.0,84,0.00,,,0.00,Weather View 32 v70,2013-06-02 13:28:00,
2013-06-02 09:33:00,75.0,68.7,29.79,SW,225,1.0,6.0,81,0.00,,,0.00,Weather View 32 v70,2013-06-02 13:33:00,
2013-06-02 09:38:00,75.0,69.1,29.79,SW,225,2.0,6.0,82,0.00,,,0.00,Weather View 32 v70,2013-06-02 13:38:00,
2013-06-02 09:43:00,75.0,68.7,29.79,SW,225,1.0,6.0,81,0.00,,,0.00,Weather View 32 v70,2013-06-02 13:43:00,
2013-06-02 09:48:00,75.0,68.7,29.79,SW,225,0.0,6.0,81,0.00,,,0.00,Weather View 32 v70,2013-06-02 13:48:00,
2013-06-02 09:53:00,76.0,69.7,29.77,SW,225,2.0,6.0,81,0.00,,,0.00,Weather View 32 v70,2013-06-02 13:53:00,
2013-06-02 09:58:00,76.0,69.7,29.77,SW,225,2.0,6.0,81,0.00,,,0.00,Weather View 32 v70,2013-06-02 13:58:00,
2013-06-02 10:03:00,76.0,69.0,29.78,SSW,202,3.0,6.0,79,0.00,,,0.00,Weather View 32 v70,2013-06-02 14:03:00,
2013-06-02 10:09:00,77.0,70.0,29.78,SSW,202,0.0,6.0,79,0.00,,,0.00,Weather View 32 v70,2013-06-02 14:09:00,
2013-06-02 10:14:00,77.0,69.2,29.77,SSW,202,2.0,6.0,77,0.00,,,0.00,Weather View 32 v70,2013-06-02 14:14:00,
2013-06-02 10:19:00,77.0,69.2,29.77,SSE,157,0.0,6.0,77,0.00,,,0.00,Weather View 32 v70,2013-06-02 14:19:00,
2013-06-02 10:24:00,78.0,69.8,29.76,SSW,202,2.0,6.0,76,0.00,,,0.00,Weather View 32 v70,2013-06-02 14:24:00,
2013-06-02 10:29:00,78.0,70.2,29.76,SW,225,0.0,6.0,77,0.00,,,0.00,Weather View 32 v70,2013-06-02 14:29:00,
2013-06-02 10:34:00,78.0,69.8,29.76,SW,225,1.0,6.0,76,0.00,,,0.00,Weather View 32 v70,2013-06-02 14:34:00,
2013-06-02 10:39:00,78.0,69.8,29.76,SSW,202,0.0,6.0,76,0.00,,,0.00,Weather View 32 v70,2013-06-02 14:39:00,
2013-06-02 10:44:00,78.0,69.8,29.76,West,270,2.0,6.0,76,0.00,,,0.00,Weather View 32 v70,2013-06-02 14:44:00,
2013-06-02 10:49:00,78.0,69.8,29.76,SSW,202,1.0,6.0,76,0.00,,,0.00,Weather View 32 v70,2013-06-02 14:49:00,
2013-06-02 10:54:00,78.0,69.8,29.76,South,180,2.0,7.0,76,0.00,,,0.00,Weather View 32 v70,2013-06-02 14:54:00,
2013-06-02 10:59:00,78.0,70.6,29.76,SW,225,1.0,7.0,78,0.00,,,0.00,Weather View 32 v70,2013-06-02 14:59:00,
2013-06-02 11:04:00,78.0,69.0,29.76,South,180,2.0,7.0,74,0.00,,,0.00,Weather View 32 v70,2013-06-02 15:04:00,
2013-06-02 11:09:00,78.0,69.4,29.76,SW,225,0.0,7.0,75,0.00,,,0.00,Weather View 32 v70,2013-06-02 15:09:00,
2013-06-02 11:14:00,78.0,69.0,29.76,SSE,157,3.0,7.0,74,0.00,,,0.00,Weather View 32 v70,2013-06-02 15:14:00,
2013-06-02 11:19:00,78.0,69.8,29.76,North,360,1.0,7.0,76,0.00,,,0.00,Weather View 32 v70,2013-06-02 15:19:00,
2013-06-02 11:24:00,79.0,70.0,29.75,SW,225,2.0,7.0,74,0.00,,,0.00,Weather View 32 v70,2013-06-02 15:24:00,
2013-06-02 11:29:00,80.0,70.1,29.75,South,180,1.0,7.0,72,0.00,,,0.00,Weather View 32 v70,2013-06-02 15:29:00,
2013-06-02 11:34:00,81.0,70.7,29.74,SW,225,1.0,7.0,71,0.00,,,0.00,Weather View 32 v70,2013-06-02 15:34:00,
2013-06-02 11:39:00,81.0,70.7,29.74,SSW,202,1.0,7.0,71,0.00,,,0.00,Weather View 32 v70,2013-06-02 15:39:00,
2013-06-02 11:44:00,82.0,71.2,29.74,South,180,2.0,7.0,70,0.00,,,0.00,Weather View 32 v70,2013-06-02 15:44:00,
2013-06-02 11:49:00,82.0,69.9,29.74,South,180,4.0,7.0,67,0.00,,,0.00,Weather View 32 v70,2013-06-02 15:49:00,
2013-06-02 11:54:00,82.0,70.8,29.73,SSW,202,3.0,6.0,69,0.00,,,0.00,Weather View 32 v70,2013-06-02 15:54:00,
2013-06-02 11:59:00,81.0,69.8,29.73,SSW,202,2.0,6.0,69,0.00,,,0.00,Weather View 32 v70,2013-06-02 15:59:00,
2013-06-02 12:04:00,81.0,69.8,29.73,SW,225,1.0,6.0,69,0.00,,,0.00,Weather View 32 v70,2013-06-02 16:04:00,
2013-06-02 12:09:00,81.0,70.2,29.73,ENE,67,1.0,6.0,70,0.00,,,0.00,Weather View 32 v70,2013-06-02 16:09:00,
2013-06-02 12:14:00,81.0,70.2,29.73,South,180,1.0,6.0,70,0.00,,,0.00,Weather View 32 v70,2013-06-02 16:14:00,
2013-06-02 12:19:00,81.0,69.8,29.73,SSW,202,2.0,7.0,69,0.00,,,0.00,Weather View 32 v70,2013-06-02 16:19:00,
2013-06-02 12:24:00,81.0,69.8,29.74,South,180,4.0,7.0,69,0.00,,,0.00,Weather View 32 v70,2013-06-02 16:24:00,
2013-06-02 12:29:00,81.0,69.4,29.74,South,180,1.0,7.0,68,0.00,,,0.00,Weather View 32 v70,2013-06-02 16:29:00,
2013-06-02 12:34:00,82.0,71.2,29.73,SSW,202,0.0,7.0,70,0.00,,,0.00,Weather View 32 v70,2013-06-02 16:34:00,
2013-06-02 12:40:00,82.0,69.0,29.73,SW,225,3.0,7.0,65,0.00,,,0.00,Weather View 32 v70,2013-06-02 16:40:00,
2013-06-02 12:45:00,83.0,70.9,29.73,SSW,202,2.0,7.0,67,0.00,,,0.00,Weather View 32 v70,2013-06-02 16:45:00,
2013-06-02 12:50:00,83.0,70.4,29.73,SSW,202,2.0,7.0,66,0.00,,,0.00,Weather View 32 v70,2013-06-02 16:50:00,
2013-06-02 12:55:00,83.0,70.0,29.72,SW,225,2.0,7.0,65,0.00,,,0.00,Weather View 32 v70,2013-06-02 16:55:00,
2013-06-02 13:00:00,83.0,69.5,29.72,SW,225,3.0,7.0,64,0.00,,,0.00,Weather View 32 v70,2013-06-02 17:00:00,
2013-06-02 13:05:00,83.0,70.0,29.72,SW,225,2.0,7.0,65,0.00,,,0.00,Weather View 32 v70,2013-06-02 17:05:00,
2013-06-02 13:10:00,83.0,70.4,29.72,SSW,202,5.0,7.0,66,0.00,,,0.00,Weather View 32 v70,2013-06-02 17:10:00,
2013-06-02 13:15:00,84.0,71.8,29.71,SSW,202,0.0,7.0,67,0.00,,,0.00,Weather View 32 v70,2013-06-02 17:15:00,
2013-06-02 13:20:00,84.0,70.9,29.71,South,180,1.0,7.0,65,0.00,,,0.00,Weather View 32 v70,2013-06-02 17:20:00,
2013-06-02 13:25:00,84.0,70.0,29.71,SW,225,5.0,7.0,63,0.00,,,0.00,Weather View 32 v70,2013-06-02 17:25:00,
2013-06-02 13:30:00,84.0,69.5,29.71,South,180,2.0,7.0,62,0.00,,,0.00,Weather View 32 v70,2013-06-02 17:30:00,
2013-06-02 13:35:00,85.0,70.0,29.70,SSW,202,2.0,7.0,61,0.00,,,0.00,Weather View 32 v70,2013-06-02 17:35:00,
2013-06-02 13:40:00,85.0,70.9,29.70,SW,225,3.0,7.0,63,0.00,,,0.00,Weather View 32 v70,2013-06-02 17:40:00,
2013-06-02 13:45:00,85.0,69.0,29.69,West,270,1.0,7.0,59,0.00,,,0.00,Weather View 32 v70,2013-06-02 17:45:00,
2013-06-02 13:50:00,85.0,69.5,29.69,South,180,0.0,9.0,60,0.00,,,0.00,Weather View 32 v70,2013-06-02 17:50:00,
2013-06-02 13:55:00,85.0,68.5,29.68,SW,225,5.0,9.0,58,0.00,,,0.00,Weather View 32 v70,2013-06-02 17:55:00,
2013-06-02 14:00:00,85.0,69.0,29.68,SW,225,2.0,9.0,59,0.00,,,0.00,Weather View 32 v70,2013-06-02 18:00:00,
2013-06-02 14:05:00,85.0,69.0,29.67,SW,225,0.0,9.0,59,0.00,,,0.00,Weather View 32 v70,2013-06-02 18:05:00,
2013-06-02 14:10:00,86.0,70.4,29.67,SSW,202,1.0,9.0,60,0.00,,,0.00,Weather View 32 v70,2013-06-02 18:10:00,
2013-06-02 14:16:00,86.0,69.9,29.67,SW,225,2.0,9.0,59,0.00,,,0.00,Weather View 32 v70,2013-06-02 18:16:00,
2013-06-02 14:21:00,86.0,69.9,29.67,South,180,4.0,9.0,59,0.00,,,0.00,Weather View 32 v70,2013-06-02 18:21:00,
2013-06-02 14:26:00,86.0,69.9,29.67,WSW,247,3.0,9.0,59,0.00,,,0.00,Weather View 32 v70,2013-06-02 18:26:00,
2013-06-02 14:31:00,87.0,69.3,29.67,SW,225,4.0,9.0,56,0.00,,,0.00,Weather View 32 v70,2013-06-02 18:31:00,
2013-06-02 14:36:00,87.0,69.3,29.67,SW,225,6.0,9.0,56,0.00,,,0.00,Weather View 32 v70,2013-06-02 18:36:00,
2013-06-02 14:41:00,87.0,71.4,29.67,SW,225,3.0,9.0,60,0.00,,,0.00,Weather View 32 v70,2013-06-02 18:41:00,
2013-06-02 14:46:00,87.0,70.9,29.67,SW,225,1.0,9.0,59,0.00,,,0.00,Weather View 32 v70,2013-06-02 18:46:00,
2013-06-02 14:51:00,87.0,68.8,29.67,SW,225,4.0,8.0,55,0.00,,,0.00,Weather View 32 v70,2013-06-02 18:51:00,
2013-06-02 14:56:00,88.0,69.2,29.66,SSW,202,5.0,8.0,54,0.00,,,0.00,Weather View 32 v70,2013-06-02 18:56:00,
2013-06-02 15:01:00,88.0,70.3,29.66,SW,225,3.0,8.0,56,0.00,,,0.00,Weather View 32 v70,2013-06-02 19:01:00,
2013-06-02 15:06:00,88.0,69.2,29.66,WSW,247,1.0,8.0,54,0.00,,,0.00,Weather View 32 v70,2013-06-02 19:06:00,
2013-06-02 15:11:00,88.0,69.2,29.66,South,180,3.0,8.0,54,0.00,,,0.00,Weather View 32 v70,2013-06-02 19:11:00,
2013-06-02 15:16:00,88.0,70.3,29.67,SSW,202,2.0,8.0,56,0.00,,,0.00,Weather View 32 v70,2013-06-02 19:16:00,
2013-06-02 15:21:00,88.0,69.2,29.67,SSW,202,4.0,8.0,54,0.00,,,0.00,Weather View 32 v70,2013-06-02 19:21:00,
2013-06-02 15:26:00,88.0,69.7,29.67,SW,225,3.0,8.0,55,0.00,,,0.00,Weather View 32 v70,2013-06-02 19:26:00,
2013-06-02 15:31:00,88.0,70.8,29.67,SSW,202,3.0,8.0,57,0.00,,,0.00,Weather View 32 v70,2013-06-02 19:31:00,
2013-06-02 15:36:00,88.0,69.2,29.67,SW,225,5.0,8.0,54,0.00,,,0.00,Weather View 32 v70,2013-06-02 19:36:00,
2013-06-02 15:41:00,89.0,70.1,29.67,SW,225,4.0,7.0,54,0.00,,,0.00,Weather View 32 v70,2013-06-02 19:41:00,
2013-06-02 15:46:00,88.0,68.1,29.65,SW,225,2.0,7.0,52,0.00,,,0.00,Weather View 32 v70,2013-06-02 19:46:00,
2013-06-02 15:51:00,88.0,68.6,29.65,SW,225,4.0,7.0,53,0.00,,,0.00,Weather View 32 v70,2013-06-02 19:51:00,
2013-06-02 15:56:00,87.0,69.3,29.66,SW,225,3.0,7.0,56,0.00,,,0.00,Weather View 32 v70,2013-06-02 19:56:00,
2013-06-02 16:01:00,86.0,69.4,29.66,SW,225,2.0,7.0,58,0.00,,,0.00,Weather View 32 v70,2013-06-02 20:01:00,
2013-06-02 16:06:00,86.0,69.4,29.66,SW,225,2.0,7.0,58,0.00,,,0.00,Weather View 32 v70,2013-06-02 20:06:00,
2013-06-02 16:11:00,86.0,69.9,29.66,SW,225,5.0,7.0,59,0.00,,,0.00,Weather View 32 v70,2013-06-02 20:11:00,
2013-06-02 16:16:00,86.0,68.4,29.66,SSW,202,4.0,6.0,56,0.00,,,0.00,Weather View 32 v70,2013-06-02 20:16:00,
2013-06-02 16:21:00,86.0,69.9,29.66,SSW,202,1.0,6.0,59,0.00,,,0.00,Weather View 32 v70,2013-06-02 20:21:00,
2013-06-02 16:26:00,86.0,69.4,29.66,SSW,202,2.0,6.0,58,0.00,,,0.00,Weather View 32 v70,2013-06-02 20:26:00,
2013-06-02 16:31:00,86.0,68.9,29.66,SSW,202,2.0,6.0,57,0.00,,,0.00,Weather View 32 v70,2013-06-02 20:31:00,
2013-06-02 16:36:00,87.0,69.3,29.65,SW,225,4.0,6.0,56,0.00,,,0.00,Weather View 32 v70,2013-06-02 20:36:00,
2013-06-02 16:41:00,87.0,69.3,29.65,SSW,202,2.0,6.0,56,0.00,,,0.00,Weather View 32 v70,2013-06-02 20:41:00,
2013-06-02 16:46:00,86.0,68.4,29.65,South,180,1.0,7.0,56,0.00,,,0.00,Weather View 32 v70,2013-06-02 20:46:00,
2013-06-02 16:51:00,86.0,68.4,29.65,SW,225,4.0,7.0,56,0.00,,,0.00,Weather View 32 v70,2013-06-02 20:51:00,
2013-06-02 16:56:00,85.0,68.0,29.67,SSW,202,3.0,7.0,57,0.00,,,0.00,Weather View 32 v70,2013-06-02 20:56:00,
2013-06-02 17:01:00,84.0,69.0,29.67,SW,225,1.0,7.0,61,0.00,,,0.00,Weather View 32 v70,2013-06-02 21:01:00,
2013-06-02 17:06:00,83.0,68.1,29.67,SSW,202,2.0,7.0,61,0.00,,,0.00,Weather View 32 v70,2013-06-02 21:06:00,
2013-06-02 17:11:00,82.0,68.6,29.67,SSW,202,0.0,7.0,64,0.00,,,0.00,Weather View 32 v70,2013-06-02 21:11:00,
2013-06-02 17:16:00,82.0,69.0,29.67,SSW,202,4.0,7.0,65,0.00,,,0.00,Weather View 32 v70,2013-06-02 21:16:00,
2013-06-02 17:21:00,81.0,68.5,29.67,SSW,202,2.0,7.0,66,0.00,,,0.00,Weather View 32 v70,2013-06-02 21:21:00,
2013-06-02 17:26:00,80.0,68.4,29.68,SW,225,2.0,7.0,68,0.00,,,0.00,Weather View 32 v70,2013-06-02 21:26:00,
2013-06-02 18:40:00,76.0,67.9,29.72,NNW,337,0.0,7.0,76,0.00,,,0.00,Weather View 32 v70,2013-06-02 22:40:00,
2013-06-02 18:45:00,76.0,67.9,29.72,North,360,0.0,7.0,76,0.00,,,0.00,Weather View 32 v70,2013-06-02 22:45:00,
2013-06-02 18:50:00,75.0,66.9,29.72,South,180,1.0,7.0,76,0.00,,,0.00,Weather View 32 v70,2013-06-02 22:50:00,
2013-06-02 18:55:00,75.0,67.3,29.73,SE,135,1.0,7.0,77,0.00,,,0.00,Weather View 32 v70,2013-06-02 22:55:00,
2013-06-02 19:00:00,75.0,67.6,29.73,SE,135,0.0,6.0,78,0.00,,,0.00,Weather View 32 v70,2013-06-02 23:00:00,
2013-06-02 19:05:00,74.0,66.7,29.73,SSW,202,0.0,6.0,78,0.00,,,0.00,Weather View 32 v70,2013-06-02 23:05:00,
2013-06-02 19:10:00,74.0,66.7,29.73,SSW,202,1.0,5.0,78,0.00,,,0.00,Weather View 32 v70,2013-06-02 23:10:00,
2013-06-02 19:12:00,74.0,67.0,29.73,SSW,202,2.0,5.0,79,0.00,,,0.00,Weather View 32 v70,2013-06-02 23:12:00,
2013-06-02 19:13:00,74.0,67.0,29.73,SSW,202,0.0,5.0,79,0.00,,,0.00,Weather View 32 v70,2013-06-02 23:13:00,
2013-06-02 19:14:00,74.0,66.7,29.73,SSW,202,0.0,5.0,78,0.00,,,0.00,Weather View 32 v70,2013-06-02 23:14:00,
2013-06-02 19:15:00,74.0,67.0,29.73,SSW,202,0.0,5.0,79,0.00,,,0.00,Weather View 32 v70,2013-06-02 23:15:00,
2013-06-02 19:16:00,74.0,67.0,29.73,SSW,202,0.0,5.0,79,0.00,,,0.00,Weather View 32 v70,2013-06-02 23:16:00,
2013-06-02 19:17:00,74.0,67.0,29.73,SSW,202,0.0,5.0,79,0.00,,,0.00,Weather View 32 v70,2013-06-02 23:17:00,
2013-06-02 19:20:00,74.0,67.4,29.73,NNW,337,2.0,3.0,80,0.00,,,0.00,Weather View 32 v70,2013-06-02 23:20:00,
2013-06-02 19:27:00,74.0,67.0,29.73,SSW,202,1.0,5.0,79,0.00,,,0.00,Weather View 32 v70,2013-06-02 23:27:00,
2013-06-02 19:32:00,74.0,67.4,29.74,South,180,2.0,4.0,80,0.00,,,0.00,Weather View 32 v70,2013-06-02 23:32:00,
2013-06-02 19:37:00,73.0,66.4,29.74,South,180,0.0,4.0,80,0.00,,,0.00,Weather View 32 v70,2013-06-02 23:37:00,
2013-06-02 19:42:00,73.0,66.8,29.74,West,270,0.0,4.0,81,0.00,,,0.00,Weather View 32 v70,2013-06-02 23:42:00,
2013-06-02 19:47:00,73.0,66.8,29.74,WSW,247,1.0,4.0,81,0.00,,,0.00,Weather View 32 v70,2013-06-02 23:47:00,
2013-06-02 19:52:00,73.0,67.2,29.74,SSW,202,0.0,4.0,82,0.00,,,0.00,Weather View 32 v70,2013-06-02 23:52:00,
2013-06-02 19:57:00,73.0,67.2,29.75,SSW,202,0.0,4.0,82,0.00,,,0.00,Weather View 32 v70,2013-06-02 23:57:00,
2013-06-02 20:02:00,73.0,67.2,29.75,SSW,202,0.0,4.0,82,0.00,,,0.00,Weather View 32 v70,2013-06-03 00:02:00,
2013-06-02 20:07:00,73.0,67.2,29.75,SSW,202,1.0,4.0,82,0.00,,,0.00,Weather View 32 v70,2013-06-03 00:07:00,
2013-06-02 20:12:00,73.0,67.2,29.75,SSW,202,1.0,4.0,82,0.00,,,0.00,Weather View 32 v70,2013-06-03 00:12:00,
2013-06-02 20:17:00,72.0,66.2,29.75,SSW,202,3.0,4.0,82,0.00,,,0.00,Weather View 32 v70,2013-06-03 00:17:00,
2013-06-02 20:22:00,72.0,66.5,29.75,SW,225,1.0,5.0,83,0.00,,,0.00,Weather View 32 v70,2013-06-03 00:22:00,
2013-06-02 20:27:00,72.0,66.5,29.75,SW,225,3.0,5.0,83,0.00,,,0.00,Weather View 32 v70,2013-06-03 00:27:00,
2013-06-02 20:32:00,72.0,66.5,29.75,SW,225,0.0,5.0,83,0.00,,,0.00,Weather View 32 v70,2013-06-03 00:32:00,
2013-06-02 20:37:00,72.0,66.5,29.76,SW,225,1.0,5.0,83,0.00,,,0.00,Weather View 32 v70,2013-06-03 00:37:00,
2013-06-02 20:42:00,72.0,66.9,29.76,SW,225,1.0,5.0,84,0.00,,,0.00,Weather View 32 v70,2013-06-03 00:42:00,
2013-06-02 20:47:00,71.0,65.9,29.76,South,180,4.0,5.0,84,0.00,,,0.00,Weather View 32 v70,2013-06-03 00:47:00,
2013-06-02 20:52:00,71.0,65.9,29.76,SW,225,3.0,5.0,84,0.00,,,0.00,Weather View 32 v70,2013-06-03 00:52:00,
2013-06-02 20:57:00,71.0,65.9,29.77,SW,225,2.0,5.0,84,0.00,,,0.00,Weather View 32 v70,2013-06-03 00:57:00,
2013-06-02 21:02:00,71.0,66.2,29.77,SW,225,2.0,5.0,85,0.00,,,0.00,Weather View 32 v70,2013-06-03 01:02:00,
2013-06-02 21:07:00,71.0,66.2,29.77,SW,225,1.0,5.0,85,0.00,,,0.00,Weather View 32 v70,2013-06-03 01:07:00,
2013-06-02 21:12:00,71.0,66.6,29.77,SW,225,2.0,5.0,86,0.00,,,0.00,Weather View 32 v70,2013-06-03 01:12:00,
2013-06-02 21:17:00,71.0,66.6,29.77,SSW,202,2.0,5.0,86,0.00,,,0.00,Weather View 32 v70,2013-06-03 01:17:00,
2013-06-02 21:22:00,70.0,65.6,29.77,SW,225,1.0,5.0,86,0.00,,,0.00,Weather View 32 v70,2013-06-03 01:22:00,
2013-06-02 21:27:00,70.0,65.6,29.77,SW,225,0.0,5.0,86,0.00,,,0.00,Weather View 32 v70,2013-06-03 01:27:00,
2013-06-02 21:32:00,70.0,65.9,29.77,SW,225,0.0,5.0,87,0.00,,,0.00,Weather View 32 v70,2013-06-03 01:32:00,
2013-06-02 21:37:00,70.0,65.9,29.77,SW,225,3.0,5.0,87,0.00,,,0.00,Weather View 32 v70,2013-06-03 01:37:00,
2013-06-02 21:42:00,70.0,65.9,29.77,SW,225,2.0,5.0,87,0.00,,,0.00,Weather View 32 v70,2013-06-03 01:42:00,
2013-06-02 21:47:00,70.0,65.9,29.78,SW,225,3.0,5.0,87,0.00,,,0.00,Weather View 32 v70,2013-06-03 01:47:00,
2013-06-02 21:52:00,70.0,65.9,29.78,SW,225,3.0,5.0,87,0.00,,,0.00,Weather View 32 v70,2013-06-03 01:52:00,
2013-06-02 21:57:00,70.0,65.9,29.78,SW,225,2.0,5.0,87,0.00,,,0.00,Weather View 32 v70,2013-06-03 01:57:00,
2013-06-02 22:02:00,70.0,65.9,29.78,SW,225,3.0,4.0,87,0.00,,,0.00,Weather View 32 v70,2013-06-03 02:02:00,
2013-06-02 22:07:00,70.0,65.9,29.78,SW,225,2.0,4.0,87,0.00,,,0.00,Weather View 32 v70,2013-06-03 02:07:00,
2013-06-02 22:12:00,70.0,65.9,29.78,SW,225,3.0,4.0,87,0.00,,,0.00,Weather View 32 v70,2013-06-03 02:12:00,
2013-06-02 22:17:00,70.0,66.3,29.78,SW,225,1.0,4.0,88,0.00,,,0.00,Weather View 32 v70,2013-06-03 02:17:00,
2013-06-02 22:22:00,70.0,66.3,29.78,SW,225,1.0,4.0,88,0.00,,,0.00,Weather View 32 v70,2013-06-03 02:22:00,
2013-06-02 22:27:00,70.0,66.3,29.78,SW,225,1.0,4.0,88,0.00,,,0.00,Weather View 32 v70,2013-06-03 02:27:00,
2013-06-02 22:32:00,70.0,66.6,29.78,SW,225,0.0,4.0,89,0.00,,,0.00,Weather View 32 v70,2013-06-03 02:32:00,
2013-06-02 22:37:00,69.0,65.3,29.78,SW,225,1.0,4.0,88,0.00,,,0.00,Weather View 32 v70,2013-06-03 02:37:00,
2013-06-02 22:42:00,69.0,65.3,29.78,SW,225,1.0,4.0,88,0.00,,,0.00,Weather View 32 v70,2013-06-03 02:42:00,
2013-06-02 22:47:00,69.0,65.3,29.78,SW,225,1.0,4.0,88,0.00,,,0.00,Weather View 32 v70,2013-06-03 02:47:00,
2013-06-02 22:52:00,69.0,65.6,29.78,SW,225,1.0,4.0,89,0.00,,,0.00,Weather View 32 v70,2013-06-03 02:52:00,
2013-06-02 22:57:00,69.0,65.9,29.78,SW,225,1.0,4.0,90,0.00,,,0.00,Weather View 32 v70,2013-06-03 02:57:00,
2013-06-02 23:02:00,69.0,65.9,29.78,SW,225,3.0,4.0,90,0.00,,,0.00,Weather View 32 v70,2013-06-03 03:02:00,
2013-06-02 23:07:00,69.0,65.9,29.78,SW,225,2.0,4.0,90,0.00,,,0.00,Weather View 32 v70,2013-06-03 03:07:00,
2013-06-02 23:12:00,69.0,65.9,29.78,SW,225,3.0,4.0,90,0.00,,,0.00,Weather View 32 v70,2013-06-03 03:12:00,
2013-06-02 23:17:00,69.0,65.9,29.79,SW,225,0.0,4.0,90,0.00,,,0.00,Weather View 32 v70,2013-06-03 03:17:00,
2013-06-02 23:22:00,69.0,65.9,29.79,SW,225,0.0,4.0,90,0.00,,,0.00,Weather View 32 v70,2013-06-03 03:22:00,
2013-06-02 23:27:00,69.0,65.9,29.79,SW,225,0.0,4.0,90,0.00,,,0.00,Weather View 32 v70,2013-06-03 03:27:00,
2013-06-02 23:32:00,69.0,66.3,29.79,SW,225,0.0,4.0,91,0.00,,,0.00,Weather View 32 v70,2013-06-03 03:32:00,
2013-06-02 23:37:00,69.0,65.9,29.79,SW,225,0.0,4.0,90,0.00,,,0.00,Weather View 32 v70,2013-06-03 03:37:00,
2013-06-02 23:42:00,69.0,66.3,29.79,SW,225,0.0,4.0,91,0.00,,,0.00,Weather View 32 v70,2013-06-03 03:42:00,
2013-06-02 23:47:00,69.0,66.3,29.79,SW,225,1.0,4.0,91,0.00,,,0.00,Weather View 32 v70,2013-06-03 03:47:00,
2013-06-02 23:52:00,69.0,66.3,29.79,NW,315,0.0,4.0,91,0.00,,,0.00,Weather View 32 v70,2013-06-03 03:52:00,
2013-06-02 23:57:00,69.0,66.3,29.79,WNW,292,0.0,4.0,91,0.00,,,0.00,Weather View 32 v70,2013-06-03 03:57:00,